Location: Barrio de Canyet
(41.4665°N, 2.2381°E)
Time: 01:46:45
(UTC+00:00)

Cosmos 1300 - Pass Details

Date: 09 April 2020
Orbit: 511 x 515 km, 82.5° (Epoch: 05 June)

Event Time Altitude Azimuth Distance (km) Brightness Sun altitude
Exits shadow 20:17:40 18° 200° (SSW) 1,303 4.6 -20.3°
Maximum altitude 20:20:22 65° 279° (W) 569 3.0 -20.8°
Drops below altitude 10° 20:24:11 10° 2° (N) 1,749 5.8 -21.4°
Sets 20:26:20 0° 5° (N) 2,641 6.7 -21.7°
